User: anonymous   Login
Location: Owatonna
(44.0840°N, 93.2260°W)
Time: 09:04:43
(UTC-06:00)
Language:

Tiangong 1 - Orbit

View from above orbital plane
View from above orbital plane
View from above satellite
View from above satellite

Ground track
Ground track

The orbit data is extracted from the following two-line orbital elements,

1 37820U 11053A   17327.12958478  .00075654  10374-4  21954-3 0  9994
2 37820  42.7554 298.8057 0018012 140.8764 278.3609 15.92337916353181
Epoch (UTC): 23 November 2017 03:06:36
Eccentricity: 0.0018012
inclination: 42.7554°
perigee height: 284 km
apogee height: 308 km
right ascension of ascending node: 298.8057°
argument of perigee: 140.8764°
revolutions per day: 15.92337916
mean anomaly at epoch: 278.3609°
orbit number at epoch: 35318

The dashed part of the orbit path shows where the satellite is in the earth's shadow,  

DLR